Theta_e
346 345 345 344 344 344 345 344 344 344 346 347 347 346 343 344 341 338 338 341 341 347 347 347 377 369 369 370 361 358 359 362 362 369 370 368 373 363 360 361 364 366 369 372 373 373 374 374 372 372 372 372 371 370 370 370 368 367 365 363 363 360 360 359 357 354 354 355 356 356 355 353 351 350
348 348 347 345 343 345 344 344 344 344 345 344 343 343 343 344 342 343 341 342 347 346 350 352 364 376 372 364 362 359 359 363 358 360 365 368 367 364 359 359 359 360 361 363 366 368 370 371 372 372 372 372 371 371 371 371 369 367 365 363 360 359 360 359 355 353 353 354 354 354 353 351 350 349
350 348 346 347 346 346 345 345 344 344 344 343 343 343 346 348 359 354 349 341 348 351 347 351 353 369 367 359 359 358 359 361 359 359 361 364 365 363 362 359 358 356 356 358 362 367 370 371 372 372 371 370 370 370 370 369 368 366 363 361 359 359 359 356 352 352 353 353 353 352 350 349 348 346
345 347 346 347 348 349 349 348 350 349 349 347 345 345 350 354 359 359 354 346 344 352 351 351 357 369 367 367 360 364 366 370 363 367 365 364 359 370 367 355 354 353 353 354 356 360 366 370 372 372 371 370 370 370 369 367 365 364 361 360 359 359 356 352 351 351 352 352 352 350 348 347 347 346
344 346 348 348 348 350 348 347 348 349 349 349 350 350 355 361 365 359 354 348 347 352 356 355 354 355 358 355 368 362 369 370 365 359 361 364 362 367 363 360 352 353 353 353 352 354 357 364 369 371 371 370 370 369 367 364 363 362 361 360 358 355 352 350 350 350 350 350 349 348 347 346 346 345
348 347 347 347 345 348 348 348 347 346 347 348 349 350 355 360 362 362 355 351 348 346 352 354 358 356 358 353 358 356 358 365 357 357 359 358 361 361 358 360 359 352 352 351 351 352 353 357 363 367 369 369 369 368 365 362 361 359 357 355 352 349 348 349 349 349 348 347 347 346 346 345 345 344
349 346 346 347 349 349 346 346 347 348 349 349 349 349 351 352 357 358 356 350 347 347 347 352 352 354 356 354 353 355 365 360 357 356 359 363 365 365 361 358 360 352 350 351 350 350 351 353 356 360 362 363 364 362 359 357 354 351 349 347 346 344 345 345 346 347 346 346 345 345 344 344 344 343
346 345 346 346 348 348 347 347 347 347 349 349 350 349 350 353 356 357 357 354 349 349 347 350 351 354 353 356 357 370 365 358 357 357 360 363 364 363 362 360 358 355 350 350 350 349 349 350 352 353 355 356 356 354 350 348 345 344 343 343 343 341 343 341 341 343 344 344 344 344 344 343 343 342
350 349 348 348 348 349 347 347 346 347 348 348 348 348 350 350 351 355 357 353 352 349 347 348 352 355 355 358 360 368 360 357 356 358 360 360 361 363 362 363 362 353 351 349 349 349 349 350 349 349 349 348 348 347 344 343 342 340 339 340 339 339 339 338 338 338 339 339 340 340 340 340 340 340
351 349 349 350 350 349 347 346 347 349 349 349 348 349 350 353 354 355 350 348 349 348 347 348 349 354 354 356 357 360 361 356 353 352 356 361 362 360 359 359 362 360 359 357 356 349 349 348 347 348 347 345 345 344 343 341 340 338 337 336 336 336 336 335 334 334 335 335 336 336 336 337 337 338
350 350 349 349 350 349 349 348 347 348 348 348 348 350 350 351 354 352 350 349 347 345 345 347 347 347 353 353 350 357 359 358 354 353 352 352 356 356 355 355 359 361 360 356 356 357 356 355 353 345 343 342 343 342 341 341 340 339 335 333 333 334 334 333 332 332 332 332 332 332 332 334 336 337
351 349 350 350 350 350 349 349 349 350 348 348 347 349 349 349 350 351 350 350 347 345 344 344 345 347 349 351 354 360 351 345 346 353 353 348 350 352 354 355 355 361 360 358 358 355 355 354 351 345 344 344 344 343 342 341 343 343 337 332 332 333 332 331 331 330 330 330 329 328 328 329 332 335
351 351 349 348 349 351 352 351 351 351 351 348 346 347 349 348 350 353 351 349 347 345 344 343 345 346 346 347 347 348 345 344 346 353 353 350 351 353 353 354 357 356 353 354 355 357 359 353 350 349 349 350 346 346 345 345 344 344 339 334 332 332 331 330 330 330 330 329 329 328 327 326 327 330
349 349 349 350 351 350 351 351 351 350 349 348 348 347 347 346 346 349 350 348 346 344 342 342 342 342 342 344 346 347 348 350 353 350 351 348 351 354 352 353 354 355 353 348 349 355 359 355 351 351 350 351 348 349 346 347 344 341 335 333 332 331 331 330 329 329 329 328 328 327 326 325 326 326
346 347 348 348 350 350 351 351 348 346 345 345 344 344 345 347 347 345 345 347 348 347 345 344 343 342 342 344 347 349 351 350 346 346 349 351 351 349 344 341 349 352 350 345 346 349 355 356 352 352 351 352 349 349 347 343 340 338 334 332 331 331 330 330 329 329 328 327 326 326 325 324 325 325
344 344 345 346 347 348 348 348 348 349 346 342 340 341 341 342 342 343 344 343 343 344 344 344 345 345 344 345 347 348 350 346 345 345 345 342 344 349 345 344 344 349 350 347 345 346 352 355 353 350 351 352 351 349 345 338 337 336 333 331 331 330 330 329 329 328 328 327 326 325 324 323 324 324
345 345 345 345 346 346 348 349 347 347 348 348 345 342 341 340 340 337 337 339 344 345 343 343 343 344 345 345 346 349 351 355 348 345 342 340 344 346 348 347 347 352 350 349 346 344 348 353 350 350 351 351 351 349 341 337 336 335 333 331 330 330 329 329 328 328 327 325 324 323 321 321 322 322
345 345 345 344 344 345 346 347 347 347 347 348 348 349 349 349 348 341 337 337 337 340 344 343 342 344 346 344 346 350 352 351 344 339 339 346 348 348 348 351 351 355 354 349 347 345 348 351 350 348 350 351 350 349 341 333 334 333 332 330 329 329 328 328 327 326 325 323 322 320 318 318 319 320
345 345 345 345 344 344 345 346 347 347 347 347 347 347 346 346 347 347 349 350 349 347 346 345 345 347 348 348 349 350 352 351 352 351 350 352 351 351 353 353 354 354 353 350 345 336 344 351 348 348 350 350 349 348 338 330 332 332 331 329 328 328 327 326 326 325 324 321 319 317 316 315 316 318
345 346 345 345 344 344 344 346 344 346 348 346 345 344 344 344 345 346 349 342 344 353 353 351 350 350 351 346 350 350 351 352 354 356 359 358 353 350 345 343 348 347 350 351 347 343 343 350 347 346 349 350 347 347 347 331 330 330 329 328 327 326 325 325 324 323 322 319 317 316 314 314 314 317
344 345 345 345 344 345 345 343 335 336 345 344 343 343 342 343 344 344 346 341 335 334 334 335 338 338 338 337 335 334 336 346 353 354 351 348 350 346 342 343 344 345 346 346 346 345 344 348 347 346 348 347 345 346 346 340 330 329 328 327 326 325 324 323 322 321 319 318 316 315 314 313 314 317
343 344 342 347 345 345 346 338 333 334 343 343 342 341 340 340 340 341 343 344 343 334 331 331 333 334 336 337 337 337 336 333 341 345 344 348 349 344 343 340 342 344 346 345 348 342 340 345 345 344 343 342 343 345 344 340 334 329 327 326 325 324 323 321 320 318 317 316 315 315 314 314 316 320
342 343 344 344 343 344 343 332 330 330 339 340 342 342 340 338 338 340 343 342 341 343 345 346 344 341 339 342 344 346 341 341 342 348 349 351 347 343 343 343 343 338 342 347 348 340 340 341 342 343 338 335 336 337 337 336 335 333 333 330 328 324 322 320 318 316 316 315 315 314 314 314 317 322
340 342 343 344 337 329 327 326 326 326 327 338 341 341 339 337 336 341 342 343 343 343 344 344 345 347 351 354 351 350 350 349 348 346 350 352 350 347 344 344 343 340 342 347 347 342 342 342 340 343 340 333 330 330 331 333 334 333 333 330 327 325 323 321 317 314 314 314 314 314 314 315 318 322
337 338 340 342 339 328 323 320 319 318 320 326 336 340 340 340 340 342 341 342 345 342 343 344 345 346 348 348 345 345 345 347 349 349 347 352 351 349 346 345 343 342 345 347 343 346 342 344 342 341 339 339 328 324 325 327 330 330 330 328 325 323 321 319 316 315 313 313 313 313 313 315 317 321
336 338 339 340 338 328 324 322 319 318 318 320 330 334 327 327 329 337 341 342 342 340 340 340 340 342 344 344 344 344 345 344 344 347 346 346 346 345 349 348 345 342 343 349 337 349 346 342 341 336 337 329 323 326 319 321 323 325 325 324 324 321 320 317 316 314 314 315 315 314 316 315 318 320
335 337 338 339 334 326 320 314 313 312 313 319 324 320 319 321 323 330 335 337 337 337 338 338 338 339 341 340 342 341 341 344 343 343 345 349 351 347 346 349 350 347 349 349 343 349 346 343 340 339 336 337 326 324 323 318 317 320 319 320 320 319 318 317 315 314 315 315 316 316 315 316 318 320
335 335 337 336 322 313 309 311 313 315 319 324 317 315 318 320 326 331 332 333 335 336 336 336 337 338 340 341 340 343 344 346 345 345 346 347 347 349 349 346 345 343 338 340 346 347 348 344 341 342 340 337 326 322 321 322 320 318 317 317 318 317 317 317 315 316 317 317 317 318 318 318 320 317
332 327 318 314 313 314 313 313 314 316 319 316 315 316 318 325 329 331 332 334 335 335 334 335 336 337 340 341 343 344 349 348 346 346 337 334 333 330 328 327 328 327 329 331 331 336 342 344 344 343 342 339 333 329 327 321 318 316 318 314 312 315 316 316 316 315 316 317 317 318 318 319 317 319
320 317 315 314 313 314 317 323 325 326 326 324 323 323 325 327 329 331 332 334 335 334 335 335 335 337 339 339 340 342 342 339 337 339 335 332 329 330 327 325 323 324 324 326 328 330 332 332 337 342 341 339 336 332 329 321 316 317 317 315 314 316 316 315 315 316 316 315 316 317 318 318 318 319
325 326 324 324 320 319 321 322 322 323 326 327 328 330 331 331 332 333 334 334 335 335 336 336 338 338 338 339 338 336 332 329 329 331 329 326 325 325 324 321 320 321 322 324 325 326 326 328 329 331 326 318 320 321 320 319 315 313 314 314 313 309 312 314 315 315 315 315 316 316 316 317 318 321
324 325 325 322 323 324 324 323 325 328 329 329 329 331 333 335 335 336 335 335 337 337 338 338 338 337 337 334 330 329 327 326 327 328 327 325 324 325 323 320 317 319 319 321 321 323 325 323 323 322 321 319 315 315 316 314 312 311 311 313 313 312 313 312 312 313 314 314 313 312 314 314 315 316
319 319 319 319 319 320 320 323 325 328 331 332 333 333 334 336 337 336 336 334 335 336 336 335 334 332 330 327 327 326 325 326 326 328 326 326 324 323 322 319 318 317 316 317 318 319 321 321 322 321 319 319 318 316 313 310 311 312 310 310 311 310 311 313 313 312 312 312 311 311 311 314 315 315
310 310 311 314 314 315 317 319 322 327 331 332 334 335 335 336 336 335 333 331 329 329 329 328 327 325 325 323 323 323 322 323 324 324 324 323 323 320 318 317 317 319 318 317 317 318 318 318 319 319 319 318 318 318 317 312 310 312 312 311 311 310 312 313 312 312 312 311 310 309 310 312 315 317
306 307 310 313 316 317 318 319 323 330 332 332 331 330 329 329 329 329 329 328 327 326 326 326 325 325 323 322 323 322 322 322 323 323 323 323 321 319 318 316 316 317 317 317 317 318 318 317 316 315 315 315 314 316 316 316 313 312 312 312 312 311 311 313 313 311 311 311 311 309 309 311 313 316
310 312 313 315 320 324 324 324 324 324 324 325 325 324 323 324 325 326 326 326 327 326 325 324 323 323 323 323 323 323 322 322 321 321 320 319 319 318 318 317 317 317 317 317 318 320 320 317 315 313 310 310 309 308 311 315 315 314 311 311 312 312 313 314 314 313 313 312 312 311 308 308 311 315
318 320 321 321 321 321 321 322 322 322 323 324 324 324 324 323 324 325 325 326 326 326 325 324 324 324 323 324 323 323 323 322 321 320 318 318 319 318 317 316 316 317 315 316 317 317 317 316 315 313 310 309 307 306 309 316 315 317 315 312 313 314 314 314 314 314 314 313 313 312 311 311 311 314
320 320 320 320 320 321 321 322 322 322 322 322 323 323 323 323 323 323 325 325 325 325 325 324 325 325 326 325 323 322 322 322 322 320 319 319 317 316 315 314 314 314 314 315 316 316 317 316 315 314 311 308 307 307 307 312 314 315 315 316 314 314 316 314 313 313 314 316 315 316 316 314 314 316
318 318 318 318 319 319 319 320 321 321 321 322 322 322 321 321 322 322 321 321 321 321 321 322 322 322 321 320 320 320 318 317 315 314 314 314 314 313 313 313 312 312 313 313 314 315 314 313 314 314 313 310 309 309 311 310 311 316 316 316 316 315 315 314 313 314 314 314 316 317 318 320 317 318
318 318 318 317 317 317 318 318 319 319 320 320 321 321 321 321 321 321 321 320 319 319 319 319 319 319 319 319 318 318 317 317 315 314 314 314 314 314 314 313 313 312 312 312 312 313 313 313 314 314 314 314 315 316 316 316 316 317 316 316 315 316 315 315 313 313 312 314 314 312 311 314 313 315
317 316 317 318 318 317 317 317 318 318 318 319 320 320 320 319 319 319 319 319 319 318 318 317 317 316 316 316 316 315 314 314 314 314 314 314 315 315 314 315 313 313 311 310 310 310 311 313 317 318 317 315 314 314 311 308 308 310 312 313 312 314 316 316 316 313 312 313 312 310 309 309 310 312
316 316 317 318 318 318 318 318 319 319 319 319 319 318 318 319 318 320 318 318 318 318 318 318 318 316 315 314 314 315 314 313 313 314 315 313 313 314 316 316 314 313 311 309 309 310 313 316 316 314 313 312 311 307 305 306 306 307 309 312 315 311 312 313 314 313 314 312 311 309 309 310 312 310
315 315 315 316 317 317 317 318 318 318 318 318 318 319 319 319 318 317 316 316 316 317 316 315 315 315 315 316 317 317 316 316 316 315 316 317 317 316 316 315 315 315 314 314 315 315 315 315 314 314 315 314 312 309 306 307 307 309 309 311 313 314 314 309 310 312 313 314 314 314 314 312 310 308
313 313 314 315 315 315 315 315 315 316 316 316 316 317 317 317 317 318 318 318 318 318 318 319 319 318 317 317 318 319 318 318 318 317 317 317 317 316 315 315 315 314 314 314 314 315 316 317 319 319 316 314 315 312 310 310 309 310 310 311 313 314 313 313 313 308 307 308 309 312 314 316 316 315
313 312 313 313 314 314 315 316 316 315 315 315 315 315 316 315 315 315 316 317 317 318 318 318 318 319 319 318 317 316 317 319 317 317 317 316 316 316 316 315 315 314 314 314 313 313 315 316 318 321 318 317 317 316 315 313 312 312 311 311 311 312 313 314 313 312 312 313 311 309 311 311 311 311
Wind_Speed
11 10 11 10 9 8 8 9 10 8 6 8 8 8 9 8 8 7 8 7 7 5 7 5 1 2 2 2 2 3 3 5 5 5 5 5 4 11 17 17 17 17 17 17 17 18 17 17 19 19 19 20 21 22 21 20 20 18 18 18 17 16 16 16 11 11 12 11 12 14 15 14 12 11
9 10 11 10 10 9 9 9 10 9 7 8 9 8 9 7 9 7 8 8 6 6 5 4 1 0 1 2 3 4 4 7 8 3 4 5 5 10 16 17 17 17 16 16 15 15 16 16 17 19 19 19 19 20 20 20 21 19 18 17 18 18 17 14 13 12 12 11 13 14 13 13 12 12
9 8 10 9 9 9 10 10 11 10 8 7 6 6 6 5 2 3 5 8 5 5 6 5 6 3 3 4 3 4 4 6 7 5 4 4 7 8 12 15 12 8 11 14 14 15 16 17 17 18 18 18 18 18 18 18 18 18 18 18 18 18 16 12 13 13 12 13 14 13 13 13 11 10
8 8 8 8 7 7 7 8 7 8 8 9 9 7 5 5 4 4 4 7 10 5 7 6 3 2 3 3 4 3 3 1 5 2 6 7 11 1 6 4 4 8 15 16 15 16 16 18 18 18 18 18 18 18 18 18 17 16 19 18 18 16 14 13 14 14 13 14 14 14 13 12 12 12
10 7 7 7 8 8 8 8 8 8 9 8 7 6 6 4 2 4 6 8 9 7 6 6 7 7 4 5 2 3 1 1 10 11 8 7 8 4 4 7 14 17 16 15 16 16 17 17 18 18 18 18 18 18 18 17 17 17 18 16 16 15 13 15 15 15 15 15 14 14 14 14 13 12
8 8 8 9 11 8 8 8 9 9 8 7 7 6 5 4 3 4 6 7 8 11 6 7 5 6 6 7 3 4 7 2 5 6 8 6 7 7 6 7 8 14 13 14 15 17 17 17 18 18 19 19 19 19 18 17 18 17 17 16 15 15 14 16 16 16 16 15 15 15 15 15 14 13
6 8 7 8 7 7 9 9 8 7 7 6 8 8 7 6 5 5 7 6 8 10 10 6 7 6 5 7 7 7 3 5 5 6 3 3 4 4 6 7 6 9 12 15 16 16 17 17 18 18 19 19 20 19 18 18 18 17 17 16 15 14 16 17 17 17 17 16 16 15 15 15 15 14
8 8 8 8 7 7 8 7 6 6 6 7 7 8 7 6 5 5 7 8 8 7 9 7 7 6 7 7 7 3 5 6 5 4 6 6 6 5 6 7 7 7 11 14 15 16 16 17 18 19 19 20 19 19 18 18 18 17 17 17 16 16 18 18 18 17 17 17 17 16 16 15 15 15
9 9 9 9 8 8 9 8 8 7 7 7 6 7 6 7 6 5 2 3 6 7 9 8 7 7 7 6 5 3 4 3 4 4 5 5 6 5 4 4 5 6 5 7 12 13 15 16 17 19 19 19 19 19 19 19 18 17 17 18 16 18 19 18 18 18 17 17 16 16 16 15 15 15
9 9 9 9 9 8 8 8 8 7 8 7 7 7 6 6 6 4 4 6 7 8 10 10 10 7 6 4 5 6 7 6 5 5 6 4 4 5 5 6 4 3 4 4 7 11 13 16 17 18 18 19 20 19 19 19 18 18 17 17 18 19 19 19 18 18 18 17 16 16 16 16 15 15
10 10 10 9 9 9 9 9 9 9 9 8 9 8 7 7 6 5 4 5 7 7 8 8 8 10 7 7 9 8 7 5 4 6 5 6 5 5 6 6 5 5 5 7 12 12 12 14 13 15 17 18 19 19 19 19 19 18 18 18 18 19 19 19 18 18 18 18 17 17 17 16 16 16
9 10 9 8 8 9 8 8 8 8 8 7 8 7 7 7 8 7 6 6 6 7 7 8 8 7 9 8 8 2 5 3 9 8 7 8 7 7 7 7 7 6 5 7 6 7 9 9 12 12 15 18 19 19 18 19 19 19 18 18 19 20 20 19 19 19 18 18 18 17 17 16 16 16
8 7 8 8 8 10 14 14 12 11 10 8 8 7 6 7 7 7 6 6 6 7 8 9 7 8 8 9 7 5 6 9 11 8 8 9 8 7 6 7 7 6 6 6 6 7 8 8 9 8 9 11 17 17 19 16 20 20 19 20 21 20 20 20 19 19 18 18 18 17 17 17 17 16
9 9 9 8 14 14 14 13 13 13 14 14 11 9 8 9 9 8 8 7 7 7 9 10 8 9 9 10 10 9 9 9 6 6 8 9 7 6 7 6 5 6 3 0 6 8 7 9 9 10 10 9 13 11 12 12 13 18 21 21 21 21 21 20 20 19 19 18 18 18 17 17 17 16
9 9 9 8 10 12 12 12 15 16 17 17 17 18 17 14 11 9 10 9 8 8 9 9 9 9 11 12 9 8 6 5 6 7 8 8 7 8 8 8 3 6 9 8 9 9 8 9 10 11 11 11 8 9 12 17 19 19 21 21 22 22 21 21 21 20 20 19 19 18 18 17 16 16
8 9 9 8 7 8 9 10 10 12 15 17 18 19 19 19 20 18 14 12 11 10 10 10 10 9 11 10 8 8 6 7 7 8 7 8 9 9 9 9 9 7 12 10 10 11 8 9 9 9 11 11 10 11 14 19 19 20 21 22 23 23 22 22 22 21 21 20 19 19 18 17 17 16
9 8 9 9 8 8 12 11 10 10 11 13 15 15 17 18 19 19 20 20 16 12 12 11 12 11 10 11 9 8 7 4 7 6 7 9 11 10 10 9 9 7 14 11 10 11 9 10 11 11 11 11 11 12 15 19 20 22 22 23 24 24 23 22 22 22 22 21 20 20 19 18 17 17
9 9 9 10 10 9 9 9 10 9 9 9 9 9 8 8 12 17 19 19 21 18 14 14 14 14 12 13 10 8 6 6 7 8 10 11 11 11 11 11 9 6 12 15 12 8 8 11 11 12 11 11 12 11 16 21 23 23 24 24 24 24 23 23 23 23 23 22 21 20 19 19 18 18
11 11 11 11 12 11 10 9 10 10 9 9 9 9 10 10 10 9 10 10 10 11 10 13 15 16 15 14 14 11 9 11 9 10 12 12 12 12 9 7 6 4 8 8 3 9 11 9 11 12 10 11 12 11 16 22 23 24 24 23 23 24 24 24 25 24 24 23 22 21 20 20 19 19
10 11 11 11 11 12 11 13 16 14 10 10 10 11 11 11 11 11 12 14 14 12 11 12 13 13 15 15 14 13 11 10 10 9 8 6 6 7 8 11 8 8 7 10 9 9 10 10 12 13 11 10 11 11 10 17 23 24 24 25 25 24 24 24 24 25 24 23 22 21 20 19 19 18
11 11 11 11 11 12 12 14 16 15 14 11 11 12 12 12 11 11 11 13 16 18 19 20 21 20 18 17 17 16 17 13 10 8 8 11 9 9 10 10 9 10 7 8 9 8 8 9 11 10 9 10 10 11 11 11 20 24 25 26 27 26 27 27 25 23 22 22 22 21 21 20 18 18
10 12 17 15 12 12 12 13 13 15 12 11 11 11 13 14 14 13 11 10 10 15 20 22 23 23 22 21 22 20 19 17 12 9 12 11 9 12 11 12 10 7 7 9 11 7 9 4 6 8 2 1 4 7 7 10 15 22 22 25 24 23 20 18 19 18 19 20 20 21 21 20 19 14
10 10 12 16 15 14 14 16 16 15 12 10 11 12 12 13 15 13 10 11 12 11 9 8 10 11 13 12 10 14 19 19 15 12 13 11 10 11 11 11 8 9 8 9 12 10 10 9 8 8 3 6 2 1 2 8 10 12 12 13 16 20 20 22 22 22 19 16 16 17 18 19 17 11
9 9 9 11 14 15 15 17 17 16 15 11 12 11 11 11 14 12 11 11 11 11 10 10 10 10 7 6 7 8 9 10 12 12 13 11 10 10 12 11 11 11 8 6 16 12 10 11 9 9 8 8 6 4 2 4 7 10 11 11 11 17 21 21 17 20 20 18 17 16 16 18 18 12
10 9 8 8 11 14 13 12 13 14 16 16 11 12 12 12 13 12 11 12 14 10 10 9 8 8 7 6 6 6 6 7 8 10 13 12 11 12 12 13 12 11 11 7 18 12 10 10 12 11 11 5 1 4 1 3 5 8 11 12 13 11 12 12 9 12 14 16 13 13 17 20 20 14
10 10 9 9 10 12 11 13 14 16 16 16 9 12 15 17 16 13 11 11 10 10 9 9 10 9 8 8 7 7 7 8 8 8 9 11 10 9 11 11 11 11 13 9 20 12 9 7 7 4 3 4 4 4 6 3 2 4 7 8 10 12 14 13 11 11 12 13 14 16 15 17 16 16
9 10 11 12 14 14 12 9 9 8 10 8 9 15 15 15 16 13 9 9 10 10 11 10 10 10 8 8 8 6 6 7 7 8 8 9 9 9 10 13 12 14 12 5 12 13 13 10 8 9 10 10 7 6 5 7 5 5 4 7 8 7 9 10 13 13 13 13 12 20 21 21 17 13
8 9 10 10 12 12 13 14 13 12 11 10 12 11 13 12 13 9 8 9 10 11 10 10 11 11 9 8 8 8 7 6 7 8 8 7 8 9 8 6 6 4 5 4 3 10 11 11 10 12 12 10 9 11 9 2 3 11 11 7 5 6 8 9 10 10 10 10 9 12 11 11 9 6
8 9 13 15 17 17 18 19 19 18 19 20 18 19 18 15 9 8 8 9 10 10 10 10 10 10 8 7 7 4 4 2 3 1 4 5 6 7 7 7 6 6 6 4 4 3 4 8 10 9 9 8 11 11 10 10 11 11 11 10 7 8 9 7 6 8 8 7 8 8 8 7 4 4
16 18 18 18 17 16 14 10 9 9 12 17 20 21 17 11 10 9 9 10 10 10 10 10 10 8 1 3 3 1 2 4 4 4 4 4 5 4 4 5 7 7 6 7 7 5 5 4 2 5 8 8 11 11 10 9 7 7 8 9 6 7 5 7 7 7 9 10 9 9 7 7 5 2
9 10 10 8 8 9 13 15 17 19 19 15 13 11 10 9 10 11 10 10 10 10 10 10 8 6 5 5 4 2 4 5 3 3 5 5 5 5 6 8 6 6 8 8 8 8 6 4 3 3 4 5 7 4 5 6 8 8 6 7 9 8 9 9 8 9 9 9 8 7 6 6 5 5
9 9 8 10 10 10 9 9 9 10 9 11 10 9 8 8 9 11 14 13 10 11 10 8 4 3 6 6 5 4 5 5 5 3 4 5 5 4 4 5 7 5 5 6 7 9 9 8 8 8 7 6 9 7 9 9 8 9 9 8 8 8 8 9 9 9 10 11 10 9 8 7 6 4
9 9 9 9 9 8 9 9 9 9 9 9 8 9 8 8 8 7 7 8 9 9 8 7 6 6 6 6 6 6 7 6 6 5 6 5 6 5 7 8 6 5 6 6 6 7 8 10 12 12 12 10 8 7 11 10 7 9 11 11 11 10 9 9 11 11 12 13 11 11 10 8 7 7
10 9 9 8 8 9 9 10 10 9 8 8 5 3 3 5 5 2 3 5 4 5 5 6 7 6 6 6 6 7 8 7 7 6 6 6 6 7 8 8 7 6 6 6 6 6 7 9 10 11 12 13 12 10 5 10 10 6 7 7 9 10 9 9 9 11 11 11 12 11 8 6 5 4
7 6 5 6 5 7 9 10 10 6 3 3 7 7 8 7 7 7 6 6 5 7 7 7 7 6 6 6 6 7 7 7 7 6 6 6 6 7 7 8 6 6 5 5 5 3 4 6 8 10 10 9 11 12 15 8 10 10 8 7 8 10 9 8 9 9 10 9 8 10 7 6 5 4
3 3 4 5 4 2 5 6 8 9 8 9 8 9 9 8 8 8 7 5 6 6 8 8 8 8 8 7 7 7 7 8 8 7 8 7 8 7 7 7 7 7 6 5 3 2 2 5 5 9 10 8 9 9 8 12 9 9 12 9 9 9 9 9 9 9 9 9 8 8 8 8 6 5
6 4 4 5 7 8 9 8 9 9 8 8 9 9 9 9 8 8 8 8 8 8 8 8 8 8 8 7 7 6 7 8 9 9 9 8 7 7 8 7 7 7 7 6 4 5 5 6 6 8 11 9 10 12 10 5 11 10 8 12 10 10 11 10 10 9 8 9 9 8 9 8 8 7
9 8 9 9 9 10 9 9 9 11 11 11 11 11 11 10 10 10 9 8 8 7 8 8 8 8 7 7 7 8 8 8 8 8 8 7 7 8 7 7 7 6 6 5 5 6 5 6 6 5 8 10 10 10 11 6 6 7 8 7 10 10 10 11 10 10 9 8 8 7 7 7 8 9
10 10 10 11 11 11 11 10 10 11 11 11 10 10 10 10 9 9 10 10 11 11 11 11 9 9 9 9 8 8 8 8 9 9 9 9 9 9 8 7 8 6 6 6 6 6 6 7 6 5 6 8 8 7 8 9 8 7 8 10 9 9 7 7 8 7 8 8 6 5 4 4 4 3
12 11 11 11 11 11 11 10 10 10 12 11 11 10 10 10 10 9 10 10 10 11 11 11 12 11 10 9 9 9 10 11 11 10 10 10 10 9 8 6 6 6 7 7 7 7 8 8 6 6 7 8 8 8 8 9 8 7 7 6 6 8 10 10 10 10 8 7 7 6 5 3 3 2
11 11 11 11 11 11 11 11 11 11 11 11 12 11 11 11 12 12 11 11 11 12 11 11 11 12 11 10 10 11 11 10 10 10 10 10 9 8 8 7 7 7 8 8 8 9 9 7 11 15 12 9 9 8 9 9 8 6 6 4 6 6 7 5 7 8 6 7 7 7 7 8 7 5
10 12 12 12 12 11 11 12 11 11 11 11 11 11 11 11 12 16 14 15 13 13 12 11 11 11 10 10 11 12 11 10 9 10 9 9 9 8 7 6 7 7 7 7 7 7 6 5 8 8 7 6 4 6 7 7 7 5 4 4 3 5 4 4 5 5 5 7 7 6 5 3 3 4
12 12 12 12 12 11 11 11 11 11 11 11 11 11 11 11 11 11 10 11 11 11 12 12 12 12 11 10 9 8 8 8 9 9 8 6 5 6 7 7 8 7 6 6 5 6 5 4 4 4 3 4 5 5 6 5 5 5 4 3 3 3 3 3 2 4 5 8 8 6 5 4 4 4
12 12 12 11 12 12 12 11 12 12 12 12 12 10 10 10 10 10 9 9 9 9 8 8 8 7 7 6 5 5 5 6 6 6 5 5 5 5 5 6 6 5 5 5 5 5 4 3 2 2 4 4 3 4 6 6 6 5 5 5 5 5 5 4 4 1 0 2 6 7 9 11 8 5
11 11 11 11 11 11 10 10 11 10 10 10 10 10 10 11 11 10 9 9 9 9 9 8 7 7 7 6 5 6 5 5 5 5 5 5 5 5 5 6 5 5 5 4 5 5 3 3 2 0 3 2 1 3 4 5 5 5 5 6 7 7 7 6 6 6 6 6 9 11 7 8 8 9
Wind_Direction
283 280 276 271 264 258 264 271 271 264 240 231 233 235 237 239 255 259 260 254 266 259 260 265 342 81 139 179 251 275 241 255 242 201 229 225 200 201 206 206 208 211 215 217 220 220 218 213 213 211 208 208 210 212 213 210 206 208 206 207 210 213 210 211 177 183 192 200 190 179 176 177 176 181
267 270 272 275 275 272 269 265 260 257 252 252 251 252 252 245 249 251 254 258 244 266 258 266 270 273 222 189 201 212 230 241 254 208 201 214 231 196 207 207 205 207 210 213 216 218 219 218 216 215 212 210 209 209 207 202 204 198 191 203 211 208 206 204 171 184 190 190 176 175 175 177 181 187
263 262 267 272 276 281 284 287 290 299 298 284 264 252 260 268 259 221 248 266 243 252 265 259 268 243 211 219 221 225 238 234 223 223 222 230 229 186 199 205 204 216 221 212 211 212 214 215 215 214 213 210 207 205 199 199 196 195 202 204 208 207 207 190 172 181 186 181 175 173 173 180 181 170
266 271 275 276 281 284 283 277 282 287 289 293 294 291 250 230 202 164 214 241 262 249 266 274 279 257 243 225 240 248 258 194 179 8 350 350 303 233 69 68 111 210 232 225 209 207 210 211 212 211 210 208 205 199 198 195 194 196 204 206 206 207 204 173 174 178 181 180 175 171 173 174 178 173
265 265 267 265 262 265 268 271 273 271 270 272 276 283 289 261 185 204 220 245 259 248 239 267 273 268 276 270 248 270 248 289 55 40 354 359 345 21 137 172 190 206 219 219 209 204 206 207 208 207 206 204 201 197 194 194 192 197 201 200 205 205 194 170 174 176 177 179 175 172 173 178 179 172
261 260 262 266 271 270 270 268 265 265 266 270 274 277 275 236 222 201 234 249 255 266 260 258 252 264 256 268 217 216 230 112 104 159 191 155 189 201 200 187 206 208 212 218 215 204 201 203 203 203 202 200 197 196 194 192 192 198 200 199 199 201 177 172 174 177 177 178 176 173 175 181 180 176
262 260 257 256 253 250 253 255 255 256 262 264 264 266 264 263 233 205 211 231 248 255 260 254 267 262 252 246 249 245 150 133 191 185 152 188 218 237 204 200 216 207 206 212 214 209 201 199 200 200 198 195 194 193 192 192 195 199 194 194 198 189 175 174 177 178 179 179 176 177 179 183 181 176
272 269 270 268 268 271 273 273 275 266 258 262 267 271 272 266 247 230 230 219 236 250 260 241 247 256 265 250 244 218 155 173 180 172 185 197 203 195 215 214 215 211 206 211 209 209 203 199 198 197 195 192 190 189 189 192 196 196 192 191 193 181 178 177 177 179 180 180 179 179 182 182 180 179
262 263 263 264 264 267 269 269 269 270 269 266 262 260 262 264 263 255 249 311 276 255 246 248 239 249 249 251 242 173 180 176 185 203 205 201 207 191 220 248 227 225 214 219 220 216 210 203 199 196 192 188 187 187 189 192 194 193 190 191 186 181 180 180 179 179 180 181 181 180 181 182 180 180
252 254 256 255 256 257 259 264 266 268 268 268 266 266 257 251 257 230 201 222 229 247 262 263 264 245 247 258 244 226 208 199 191 208 220 212 188 182 211 229 230 196 194 196 212 211 211 207 200 195 190 188 188 189 190 191 191 192 190 187 182 181 180 181 180 180 180 181 182 180 182 183 182 182
256 253 252 255 254 253 251 255 257 259 262 261 262 261 265 267 260 230 211 214 235 243 253 261 263 266 257 236 247 240 232 243 236 204 194 223 202 189 207 230 226 217 206 199 200 203 199 197 194 191 191 191 191 191 192 191 192 191 187 184 182 181 181 181 181 182 181 182 183 182 183 183 182 182
261 261 260 259 257 255 253 251 253 253 258 259 261 257 259 259 255 236 230 223 229 241 248 249 252 242 250 246 248 276 53 291 262 234 200 216 213 208 208 214 210 203 195 194 204 206 192 190 186 191 197 193 192 194 194 194 193 190 185 183 183 183 182 182 182 182 182 183 183 183 182 182 182 183
262 264 263 260 255 256 259 253 248 247 247 253 260 259 258 260 257 242 234 229 224 237 244 249 244 253 254 253 246 229 217 225 233 221 209 227 222 208 194 215 209 192 187 198 208 209 186 175 189 201 208 205 197 199 196 197 195 191 186 184 184 183 183 184 183 183 184 185 184 183 182 182 182 183
263 261 261 261 265 265 265 262 260 255 251 247 245 253 255 256 256 253 249 242 233 233 241 244 246 247 249 251 244 235 228 227 239 253 228 222 215 202 209 212 199 177 122 315 253 228 197 187 191 198 205 199 194 197 196 198 191 192 186 184 183 184 185 184 183 183 185 186 185 184 184 183 183 183
264 263 261 259 263 263 260 256 250 248 250 250 249 247 247 247 250 258 253 249 240 241 237 242 243 242 250 249 243 239 232 186 201 229 243 242 206 200 195 218 185 172 158 193 220 230 214 195 194 195 202 200 189 198 198 196 191 188 186 185 186 185 185 185 184 184 185 186 185 185 184 184 184 184
264 265 265 263 259 254 252 256 256 250 243 242 245 247 246 246 245 243 245 252 255 249 254 252 248 249 249 253 241 239 225 219 216 231 246 255 251 217 211 216 215 182 180 191 206 221 215 215 205 201 203 200 197 198 200 195 189 188 187 187 187 187 186 186 185 184 185 185 186 186 185 184 184 184
261 261 263 265 260 259 259 260 259 258 259 255 249 243 245 246 244 244 241 239 242 253 256 258 257 251 257 257 250 239 242 185 197 185 233 234 242 239 222 218 220 175 182 192 204 216 207 207 208 209 202 197 199 193 199 192 191 190 190 189 189 188 187 186 185 185 185 186 186 186 185 184 183 183
260 256 258 260 260 257 256 255 256 257 258 258 260 258 252 246 242 243 244 244 242 238 242 249 254 254 248 254 254 246 240 228 197 209 232 228 226 228 227 223 218 182 173 194 198 216 214 206 209 213 205 195 201 194 193 190 191 192 193 192 189 189 189 187 186 186 186 186 186 185 185 184 183 182
256 256 254 253 256 257 255 252 253 256 254 255 258 262 263 261 262 259 253 247 242 237 227 236 242 250 250 251 252 250 239 240 232 209 220 222 218 224 231 238 217 169 185 208 181 228 223 205 210 217 206 197 202 197 191 189 190 191 191 190 191 192 191 189 188 187 187 185 184 184 183 183 182 180
254 254 253 254 256 256 255 252 250 251 253 257 259 259 260 263 261 259 254 250 250 247 238 234 238 242 244 244 244 242 239 237 237 242 241 235 230 228 234 236 217 215 182 187 203 224 221 200 207 215 212 203 204 198 196 185 189 191 189 191 192 192 193 193 191 189 186 183 183 182 180 180 179 177
254 253 250 252 254 255 255 253 250 249 246 251 254 258 262 261 259 259 260 247 241 241 241 243 244 245 245 246 246 244 240 236 231 232 232 233 223 222 222 226 220 222 173 189 208 229 236 205 207 215 208 205 207 205 199 185 189 189 191 192 193 192 193 193 192 189 185 184 182 179 177 176 174 171
260 257 256 252 253 253 254 255 257 253 244 246 248 254 260 263 263 261 259 266 259 240 236 238 239 239 240 240 242 241 240 240 234 228 233 230 220 228 222 232 226 225 178 197 188 193 234 230 223 223 202 313 258 216 203 180 189 190 192 194 194 195 192 185 187 183 192 189 182 178 174 172 166 163
264 263 260 254 250 250 251 246 240 235 231 247 244 252 258 260 263 260 259 261 266 266 262 253 246 250 253 251 244 252 249 245 237 228 230 230 230 225 226 229 237 245 225 197 169 197 226 217 208 208 188 224 248 321 201 181 176 183 188 191 193 191 184 190 190 187 184 185 181 175 174 165 162 164
269 267 267 263 256 245 242 244 247 247 243 243 251 250 252 252 256 260 261 259 261 267 266 265 264 261 243 234 229 228 237 240 238 237 242 236 220 220 229 224 222 233 232 166 167 194 222 211 206 200 213 205 214 185 134 183 175 179 180 177 187 193 189 188 182 173 169 173 180 181 176 172 168 163
277 272 261 259 249 239 238 240 249 254 256 252 244 247 250 247 255 264 268 270 268 269 270 270 270 268 264 242 228 232 237 240 238 231 228 233 226 222 226 230 227 238 235 192 175 184 208 199 210 195 212 221 45 130 144 135 170 179 182 181 183 181 182 184 171 169 166 174 177 178 184 180 177 169
277 277 282 281 281 280 277 276 271 263 257 254 248 244 250 257 261 261 262 267 266 260 265 266 264 259 243 238 230 226 220 224 228 242 241 242 237 249 248 233 229 238 241 188 175 194 200 213 206 192 177 145 225 161 136 187 177 178 174 184 188 181 175 173 168 172 174 177 177 177 175 185 185 179
273 272 273 274 275 282 291 296 295 288 273 267 247 252 258 262 265 265 262 261 265 266 261 258 260 259 251 248 240 219 232 225 214 226 233 242 236 213 230 246 233 233 242 194 198 195 196 209 190 194 193 205 167 162 157 153 192 153 178 189 185 175 180 170 172 177 177 174 176 170 173 181 180 171
278 279 276 284 306 318 309 298 291 284 277 267 267 264 262 260 264 262 257 248 245 252 256 258 257 256 254 245 243 233 224 215 196 221 229 252 260 258 247 260 282 335 13 4 212 229 205 199 201 202 196 192 160 175 193 176 120 175 180 171 162 167 172 181 180 171 170 162 161 164 170 176 174 142
269 281 293 300 295 292 289 284 282 278 270 262 257 254 252 251 253 241 246 249 254 255 253 252 252 253 249 256 267 271 261 97 36 7 53 53 44 47 62 70 54 30 10 9 21 344 275 228 219 202 199 189 189 201 184 185 174 181 177 146 169 181 175 165 136 148 145 137 140 149 163 158 111 108
269 269 268 270 272 271 270 270 264 258 262 258 250 246 242 236 240 230 234 242 244 246 250 249 253 253 270 343 335 12 125 119 145 147 127 104 60 62 50 47 37 29 22 10 5 9 33 41 319 224 206 189 195 200 187 151 164 163 158 166 134 97 119 141 141 140 143 148 144 140 126 112 95 100
279 277 273 278 286 289 283 279 274 270 270 268 261 252 239 227 227 233 232 236 241 245 246 245 238 230 194 174 167 133 92 101 100 109 127 118 116 111 92 83 58 38 18 17 27 28 10 17 29 87 104 57 54 66 92 104 111 114 120 124 141 156 146 133 126 128 128 120 112 98 89 91 99 104
280 280 284 285 282 280 282 277 278 265 244 248 246 243 239 233 226 227 229 230 233 236 235 239 221 177 142 139 114 109 96 88 93 93 99 104 112 103 122 89 85 88 58 27 32 41 48 43 51 59 75 105 108 89 73 85 103 109 113 107 97 99 114 125 120 112 113 113 112 111 104 100 104 97
277 277 277 275 276 271 273 281 278 272 261 248 241 241 236 237 228 216 213 217 226 224 223 222 167 142 121 107 104 100 97 92 90 86 92 80 90 83 71 82 80 68 73 67 50 50 64 69 67 73 73 61 57 93 118 108 114 127 127 124 121 119 125 127 125 127 126 121 130 140 154 163 159 158
271 267 269 270 270 270 270 268 269 271 262 249 241 243 229 227 229 184 72 71 83 76 74 86 95 94 99 102 103 97 96 89 80 79 87 89 86 86 82 80 68 60 68 71 62 60 68 77 83 77 76 73 64 48 62 119 121 113 104 121 124 127 132 132 131 137 140 147 147 146 146 147 153 154
230 241 250 267 263 260 256 260 267 282 319 70 83 73 64 52 50 64 65 67 67 82 96 89 85 90 87 92 97 103 105 104 100 90 81 88 86 86 88 86 79 68 65 75 82 77 81 95 97 91 80 79 75 58 37 53 122 109 110 105 119 124 129 131 134 136 135 136 141 143 140 135 155 166
224 219 237 263 297 354 55 41 46 50 56 59 59 62 62 55 50 59 63 62 74 80 84 85 85 88 94 93 96 98 101 98 93 85 77 73 79 81 81 85 92 91 79 68 70 86 92 79 85 95 93 87 86 85 70 29 52 130 121 125 123 128 127 129 133 133 135 135 140 139 145 162 171 158
71 93 79 59 51 50 55 54 55 57 55 63 66 64 64 63 56 57 59 67 72 69 76 89 86 82 79 79 78 81 85 92 96 96 93 90 87 90 94 97 97 93 88 79 69 73 72 76 66 89 100 95 94 99 95 82 43 28 134 130 136 137 139 135 137 139 141 143 146 159 164 165 170 180
52 53 56 54 52 53 51 50 54 57 57 56 60 61 58 56 55 52 48 56 67 77 77 84 89 85 81 79 89 92 87 82 86 88 88 83 80 72 66 67 65 70 75 68 56 54 54 71 78 78 101 107 113 110 113 91 90 45 37 108 130 136 137 138 136 140 142 153 154 152 146 165 179 190
45 47 49 52 49 47 49 47 50 55 58 57 57 64 67 65 61 59 59 61 60 61 59 56 57 62 66 67 65 71 71 68 68 67 65 63 63 70 67 61 62 61 66 69 60 58 58 61 60 72 85 103 107 115 115 121 104 100 82 96 117 119 123 126 122 117 127 129 123 104 91 88 62 100
42 45 50 52 53 51 54 52 53 54 57 56 54 52 55 57 57 55 57 58 61 60 61 59 58 58 58 56 62 68 71 72 75 71 71 70 65 58 59 67 71 66 63 59 54 47 47 50 59 73 83 82 92 92 97 95 96 95 97 91 112 141 143 146 145 147 149 155 140 138 157 139 178 153
43 46 49 51 54 53 54 54 53 55 57 58 61 59 58 59 60 59 59 60 60 61 61 61 60 60 59 57 60 66 67 64 66 68 67 65 63 62 63 64 64 60 67 65 63 61 59 59 77 79 82 87 91 99 93 92 97 111 109 96 47 87 132 128 146 152 147 145 150 160 170 184 193 184
38 46 45 44 49 51 51 52 49 49 51 52 56 59 58 58 62 62 61 58 60 62 62 60 62 65 65 64 61 62 67 66 63 64 64 69 70 63 57 66 76 72 76 81 83 84 89 79 81 85 95 96 89 88 92 105 116 113 110 95 91 38 66 106 131 135 139 153 159 171 176 181 174 206
36 42 46 45 46 46 47 51 52 51 53 51 50 50 55 56 54 56 62 62 62 65 68 68 66 66 60 59 63 71 76 78 79 82 81 72 75 74 71 71 78 78 81 84 86 99 101 91 79 71 58 69 79 88 98 106 108 110 110 119 107 87 53 46 85 159 159 171 192 199 189 176 153 207
37 38 41 42 45 46 46 46 51 51 50 49 49 44 48 54 54 53 56 60 60 58 62 69 74 86 95 94 81 69 60 69 78 83 86 87 90 96 95 95 96 98 91 84 83 76 80 82 86 74 66 64 80 102 117 120 131 141 150 149 149 163 173 187 181 133 169 211 204 205 213 214 209 193
37 38 40 40 39 37 39 40 43 46 50 53 52 48 46 50 52 49 46 49 57 58 58 60 60 60 64 63 66 70 63 66 75 75 77 78 76 75 77 83 83 85 82 82 84 74 73 88 99 324 91 102 84 120 144 152 145 148 156 163 170 178 185 178 180 188 203 216 212 194 162 148 135 131